Content
SEND FEEDBACK

Daily
Averages
Monthly
Summary
United States of America

MALDEN, MISSOURI


Home > North America > United States > Missouri
Elevation: 295 feet     Latitude: 36 36N     Longitude: 089 59W

WEATHER
 
SELECT A DAY
Number of Records: 207,983;   Date Range: 1/1/95 - 9/21/14
 
SHARE

PRINT THIS DATA

[ ← Previous Day ]
WEATHER ALMANAC - MARCH 14, 2014
[ Next Day → ]
[ °C ]   °F
Weather ElementAverageHighLow
Temperature51.7 °F60.1 °F (3:53 pm)45 °F (2:53 am)
Dewpoint37.5 °F42.1 °F (5:53 pm)33.1 °F (1:53 am)
Humidity58.7 %74 % (11:53 pm)49 % (10:53 am)
Barometer29.99 in30.03 in (1:53 am)29.94 in (1:53 pm)
Wind Speed13.3 mph21.9 mph (3:53 pm)
Wind Gust32.2 mph (3:53 pm)
Weather ElementAverage
Visibility9.9 mi
Wind DirectionSSW (204.8 °)

Weather ElementTotal
Precipitation0.01 in
Heating Degree Days12.5 (Base 65)
Growing Degree Days2.6 (Base 50)
Averaged from 23 records on March 14, 2014
WEATHER CONDITIONS BREAKOUT
WIND DIRECTION BREAKOUT
WEATHER BY HOUR - MARCH 14, 2014
[ °C ]   °F
Local TimeTemperatureDewpointHumidityBarometerVisibilityWind DirectionWind SpeedGust SpeedPrecipitationEventsConditions
1:53 AM46.0 °F33.1 °F61 %30.03 in10.0 miSouth (190°)5.8 mphClear
2:53 AM45.0 °F33.1 °F63 %30.03 in10.0 miSSW (200°)8.1 mphClear
3:53 AM45.0 °F33.1 °F63 %30.02 in10.0 miSouth (190°)8.1 mphClear
4:53 AM45.0 °F33.1 °F63 %30.01 in10.0 miSouth (190°)8.1 mphClear
5:53 AM45.0 °F33.1 °F63 %30.01 in10.0 miSSW (200°)11.5 mphClear
6:53 AM45.0 °F33.1 °F63 %30.01 in10.0 miSSW (200°)10.4 mphClear
7:53 AM46.9 °F33.1 °F59 %30.01 in10.0 miSSW (200°)12.7 mphClear
8:53 AM48.9 °F33.1 °F54 %30.01 in10.0 miSSW (200°)16.1 mphClear
9:53 AM52.0 °F34.0 °F50 %30.01 in10.0 miSSW (210°)16.1 mphClear
10:53 AM54.0 °F35.1 °F49 %30.00 in10.0 miSSW (200°)15.0 mphClear
11:53 AM53.1 °F36.0 °F52 %29.99 in10.0 miSSW (200°)18.4 mph26.5 mphOvercast
12:53 PM55.0 °F37.0 °F51 %29.98 in10.0 miSSW (210°)18.4 mph28.8 mph0.00 inRainLight Rain
1:53 PM54.0 °F39.9 °F59 %29.94 in8.0 miSouth (190°)20.7 mph31.1 mph0.00 inRainLight Rain
2:53 PM55.9 °F39.9 °F55 %29.94 in10.0 miSW (220°)12.7 mph0.01 inMostly Cloudy
3:53 PM60.1 °F41.0 °F49 %29.96 in10.0 miSW (220°)21.9 mph32.2 mphScattered Clouds
4:53 PM60.1 °F41.0 °F49 %29.94 in10.0 miSSW (210°)18.4 mph27.6 mphPartly Cloudy
5:53 PM60.1 °F42.1 °F51 %29.95 in10.0 miSSW (210°)18.4 mphClear
6:53 PM57.0 °F42.1 °F57 %29.96 in10.0 miSSW (200°)12.7 mphClear
7:53 PM55.0 °F42.1 °F62 %29.98 in10.0 miSSW (200°)12.7 mphClear
8:53 PM54.0 °F42.1 °F64 %29.99 in10.0 miSSW (210°)13.8 mphClear
9:53 PM52.0 °F42.1 °F69 %30.01 in10.0 miSSW (210°)10.4 mphClear
10:53 PM50.0 °F41.0 °F71 %30.01 in10.0 miSW (220°)8.1 mphClear
11:53 PM50.0 °F42.1 °F74 %30.01 in10.0 miSW (230°)6.9 mphClear
Hourly data recorded from KPOF, located miles away from Malden, Missouri







STORIES FROM OUR PARTNERS